Location: Unspecified
(42.3650°N, 71.1030°W)
Time: 15:25:19
(UTC+00:00)

Tiros 1 - Pass Details

Date: 03 July 2024
Orbit: 624 x 656 km, 48.4° (Epoch: 13 July)

Event Time Altitude Azimuth Distance (km) Brightness Sun altitude
Rises 02:49:07 0° 275° (W) 2,902 11.0 -19.1°
Reaches altitude 10° 02:51:33 10° 282° (WNW) 1,994 10.2 -19.3°
Maximum altitude 02:55:52 40° 353° (N) 922 8.4 -19.7°
Drops below altitude 10° 03:00:13 10° 64° (ENE) 1,999 9.7 -20.1°
Sets 03:02:39 0° 71° (ENE) 2,909 10.4 -20.3°
